Hourly Weather Baronissi

Today, 27 September, Sunday

Time Temperature Precipitation Wind Pressure Humidity
00:00 +15°C° 0.2 mm 6 mps 732 mmHg 66%
01:00 +15°C° 0 mm 7 mps 733 mmHg 64%
02:00 +15°C° 0.1 mm 6 mps 733 mmHg 66%
03:00 +15°C° 0.1 mm 6 mps 733 mmHg 67%
04:00 +15°C° 0.1 mm 5 mps 732 mmHg 69%
05:00 +15°C° 0.1 mm 5 mps 733 mmHg 70%
06:00 +16°C° 0.1 mm 5 mps 733 mmHg 70%
07:00 +17°C° 0 mm 4 mps 733 mmHg 75%
08:00 +18°C° 0.2 mm 4 mps 733 mmHg 70%
09:00 +19°C° 0.2 mm 4 mps 733 mmHg 65%
10:00 +20°C° 0.2 mm 5 mps 733 mmHg 59%
11:00 +20°C° 1.6 mm 6 mps 733 mmHg 68%
12:00 +18°C° 1.6 mm 7 mps 732 mmHg 76%
13:00 +17°C° 1.6 mm 8 mps 732 mmHg 84%
14:00 +17°C° 1.9 mm 8 mps 731 mmHg 82%
15:00 +18°C° 1.9 mm 9 mps 731 mmHg 80%
16:00 +18°C° 1.9 mm 9 mps 730 mmHg 77%
17:00 +17°C° 3.7 mm 8 mps 730 mmHg 79%
18:00 +17°C° 3.7 mm 7 mps 731 mmHg 80%
19:00 +16°C° 3.7 mm 7 mps 731 mmHg 82%
20:00 +16°C° 0.4 mm 6 mps 731 mmHg 79%
21:00 +16°C° 0.4 mm 6 mps 732 mmHg 75%
22:00 +15°C° 0.4 mm 6 mps 733 mmHg 72%
23:00 +15°C° 0.2 mm 6 mps 733 mmHg 73%

Tomorrow, 28 September, Monday

Time Temperature Precipitation Wind Pressure Humidity
00:00 +15°C° 0.2 mm 6 mps 733 mmHg 74%
01:00 +15°C° 0.2 mm 6 mps 734 mmHg 75%
02:00 +15°C° 0.6 mm 5 mps 734 mmHg 77%
03:00 +15°C° 0.6 mm 5 mps 734 mmHg 79%
04:00 +15°C° 0.6 mm 4 mps 734 mmHg 80%
05:00 +15°C° 0.6 mm 4 mps 734 mmHg 80%
06:00 +15°C° 0.6 mm 4 mps 735 mmHg 80%
07:00 +15°C° 0.6 mm 4 mps 735 mmHg 79%
08:00 +15°C° 0.8 mm 4 mps 736 mmHg 78%
09:00 +17°C° 0.8 mm 4 mps 736 mmHg 76%
10:00 +16°C° 0.8 mm 5 mps 737 mmHg 74%
11:00 +16°C° 0.8 mm 5 mps 737 mmHg 74%
12:00 +17°C° 0.8 mm 5 mps 737 mmHg 73%
13:00 +17°C° 0.8 mm 5 mps 737 mmHg 73%
14:00 +17°C° 1.1 mm 5 mps 737 mmHg 73%
15:00 +17°C° 1.1 mm 5 mps 737 mmHg 74%
16:00 +17°C° 1.1 mm 5 mps 737 mmHg 75%
17:00 +16°C° 1.4 mm 5 mps 737 mmHg 78%
18:00 +16°C° 1.4 mm 5 mps 737 mmHg 80%
19:00 +16°C° 1.4 mm 5 mps 738 mmHg 83%
20:00 +16°C° 1.4 mm 5 mps 738 mmHg 83%
21:00 +17°C° 1.4 mm 4 mps 738 mmHg 84%
22:00 +15°C° 1.4 mm 4 mps 738 mmHg 84%
23:00 +16°C° 1.1 mm 3 mps 738 mmHg 84%

Day after tomorrow, 29 September, Tuesday

Time Temperature Precipitation Wind Pressure Humidity
00:00 +16°C° 1.1 mm 3 mps 738 mmHg 85%
01:00 +16°C° 1.1 mm 2 mps 738 mmHg 86%
02:00 +16°C° 0.4 mm 2 mps 738 mmHg 86%
03:00 +16°C° 0.4 mm 2 mps 738 mmHg 86%
04:00 +16°C° 0.4 mm 1 mps 738 mmHg 87%
05:00 +16°C° 0.1 mm 1 mps 738 mmHg 85%
06:00 +16°C° 0.1 mm 1 mps 738 mmHg 83%
07:00 +18°C° 0.1 mm 1 mps 739 mmHg 81%
08:00 +18°C° 0.1 mm 2 mps 739 mmHg 75%
09:00 +19°C° 0.1 mm 2 mps 739 mmHg 69%
10:00 +21°C° 0.1 mm 2 mps 740 mmHg 63%
11:00 +21°C° 0 mm 2 mps 740 mmHg 59%
12:00 +23°C° 0 mm 2 mps 740 mmHg 55%
13:00 +22°C° 0 mm 3 mps 740 mmHg 52%
14:00 +22°C° 0 mm 3 mps 740 mmHg 52%
15:00 +22°C° 0 mm 3 mps 740 mmHg 52%
16:00 +23°C° 0 mm 2 mps 740 mmHg 53%
17:00 +20°C° 0 mm 2 mps 740 mmHg 58%
18:00 +20°C° 0 mm 1 mps 740 mmHg 64%
19:00 +19°C° 0 mm 1 mps 741 mmHg 70%
20:00 +18°C° 0 mm 1 mps 741 mmHg 71%
21:00 +18°C° 0 mm 1 mps 741 mmHg 72%
22:00 +18°C° 0 mm 1 mps 741 mmHg 73%
23:00 +18°C° 0 mm 1 mps 741 mmHg 74%

30 September, Wednesday

Time Temperature Precipitation Wind Pressure Humidity
00:00 +16°C° 0 mm 1 mps 741 mmHg 75%
01:00 +16°C° 0 mm 1 mps 741 mmHg 75%
02:00 +16°C° 0 mm 1 mps 740 mmHg 76%
03:00 +16°C° 0 mm 1 mps 740 mmHg 76%
04:00 +15°C° 0 mm 1 mps 740 mmHg 76%
05:00 +16°C° 0 mm 1 mps 740 mmHg 75%
06:00 +16°C° 0 mm 1 mps 740 mmHg 74%
07:00 +16°C° 0 mm 1 mps 740 mmHg 72%
08:00 +19°C° 0 mm 1 mps 740 mmHg 65%
09:00 +21°C° 0 mm 1 mps 740 mmHg 59%
10:00 +23°C° 0 mm 1 mps 740 mmHg 52%
11:00 +23°C° 0 mm 1 mps 740 mmHg 51%
12:00 +24°C° 0 mm 2 mps 739 mmHg 49%
13:00 +24°C° 0 mm 2 mps 739 mmHg 48%
14:00 +24°C° 0 mm 2 mps 739 mmHg 51%
15:00 +23°C° 0 mm 2 mps 738 mmHg 53%
16:00 +23°C° 0 mm 2 mps 738 mmHg 56%
17:00 +21°C° 0 mm 2 mps 738 mmHg 61%
18:00 +19°C° 0 mm 2 mps 738 mmHg 67%
19:00 +19°C° 0 mm 1 mps 738 mmHg 73%
20:00 +19°C° 0 mm 1 mps 738 mmHg 75%
21:00 +19°C° 0 mm 1 mps 738 mmHg 76%
22:00 +18°C° 0 mm 1 mps 738 mmHg 78%
23:00 +18°C° 0 mm 1 mps 738 mmHg 79%

1 October, Thursday

Time Temperature Precipitation Wind Pressure Humidity
00:00 +18°C° 0 mm 1 mps 738 mmHg 80%
01:00 +16°C° 0 mm 0 mps 737 mmHg 81%
02:00 +16°C° 0 mm 1 mps 737 mmHg 82%
03:00 +16°C° 0 mm 1 mps 737 mmHg 83%
04:00 +16°C° 0 mm 1 mps 737 mmHg 84%
05:00 +16°C° 0 mm 1 mps 737 mmHg 83%
06:00 +18°C° 0 mm 1 mps 737 mmHg 81%
07:00 +18°C° 0 mm 1 mps 737 mmHg 80%
08:00 +20°C° 0 mm 1 mps 737 mmHg 73%
09:00 +21°C° 0 mm 1 mps 737 mmHg 66%
10:00 +23°C° 0 mm 1 mps 737 mmHg 59%
11:00 +23°C° 0 mm 2 mps 737 mmHg 57%
12:00 +24°C° 0 mm 2 mps 736 mmHg 56%
13:00 +24°C° 0 mm 3 mps 736 mmHg 54%
14:00 +24°C° 0 mm 3 mps 736 mmHg 56%
15:00 +22°C° 0 mm 3 mps 736 mmHg 58%
16:00 +22°C° 0 mm 3 mps 736 mmHg 60%
17:00 +21°C° 0 mm 2 mps 736 mmHg 65%
18:00 +20°C° 0 mm 2 mps 736 mmHg 71%
19:00 +19°C° 0 mm 1 mps 736 mmHg 76%
20:00 +19°C° 0 mm 1 mps 736 mmHg 77%
21:00 +19°C° 0 mm 1 mps 736 mmHg 78%
22:00 +19°C° 0 mm 1 mps 736 mmHg 80%
23:00 +18°C° 0 mm 1 mps 736 mmHg 80%

2 October, Friday

Time Temperature Precipitation Wind Pressure Humidity
00:00 +18°C° 0 mm 1 mps 736 mmHg 81%
01:00 +18°C° 0 mm 1 mps 736 mmHg 82%
02:00 +18°C° 0 mm 1 mps 736 mmHg 83%
03:00 +16°C° 0 mm 1 mps 735 mmHg 83%
04:00 +16°C° 0 mm 1 mps 735 mmHg 84%
05:00 +16°C° 0 mm 1 mps 735 mmHg 83%
06:00 +18°C° 0 mm 1 mps 735 mmHg 82%
07:00 +18°C° 0 mm 1 mps 735 mmHg 81%
08:00 +19°C° 0 mm 2 mps 735 mmHg 73%
09:00 +20°C° 0 mm 2 mps 735 mmHg 65%
10:00 +23°C° 0 mm 2 mps 735 mmHg 58%
11:00 +22°C° 0 mm 3 mps 735 mmHg 56%
12:00 +24°C° 0 mm 3 mps 735 mmHg 54%
13:00 +25°C° 0 mm 3 mps 735 mmHg 52%
14:00 +24°C° 0 mm 3 mps 735 mmHg 53%
15:00 +24°C° 0 mm 3 mps 735 mmHg 55%
16:00 +24°C° 0 mm 3 mps 734 mmHg 56%
17:00 +21°C° 0 mm 2 mps 734 mmHg 61%
18:00 +20°C° 0 mm 2 mps 734 mmHg 66%
19:00 +19°C° 0 mm 2 mps 735 mmHg 71%
20:00 +19°C° 0 mm 2 mps 735 mmHg 69%
21:00 +19°C° 0 mm 2 mps 735 mmHg 67%
22:00 +18°C° 0 mm 2 mps 735 mmHg 66%
23:00 +19°C° 0 mm 2 mps 734 mmHg 62%
Show more